Kingsville NAS, TX

9:15 PM CDT on June 22, 2017 (GMT -0500)
Kingsville Naval Air Station

Weather History for KNQI - October, 2011

Change the Weather History Date:

Friday, October 7, 2011

  Actual Average Record
Temperature  
Mean Temperature 82 °F -  
Max Temperature 95 °F 82 °F 95 °F (2011)
Min Temperature 71 °F 65 °F 41 °F (2013)
Cooling Degree Days 17    
Growing Degree Days 32 (Base 50)    
Moisture  
Dew Point 73 °F    
Average Humidity 78    
Maximum Humidity 100    
Minimum Humidity 45    
Precipitation  
Precipitation 0.19 in - - ()
Sea Level Pressure  
Sea Level Pressure 29.94 in    
Wind  
Wind Speed 10 mph (SE)    
Max Wind Speed 23 mph    
Max Gust Speed 33 mph    
Visibility 9 miles    
Events Rain    
Averages and records for this station are not official NWS values.
T = Trace of Precipitation, MM = Missing Value Source: NWS Daily Summary

Daily Weather History Graph

Daily Weather History Graph

Search for Another Location

Airport or City:

Trip Planner

Search our weather history database for the weather conditions in past years. The results will help you decide how hot, cold, wet, or windy it might be!

Date:

Astronomy

Oct. 07, 2011 Rise Set
Actual Time 7:26 AM CDT 7:10 PM CDT
Civil Twilight 7:03 AM CDT 7:34 PM CDT
Nautical Twilight 6:36 AM CDT 8:01 PM CDT
Astronomical Twilight 6:09 AM CDT 8:28 PM CDT
Moon 4:37 PM CDT (10/7) 3:37 AM CDT (10/7)
Length of Visible Light 12h 30m
Length of Day
11h 44m
Waxing Gibbous, 83% of the Moon is Illuminated
Oct 7
Waxing Gibbous
Oct 11
Full
Oct 19
Last Quarter
Oct 26
New
Nov 2
First Quarter

Hourly Weather History & Observations

Time (CDT) Temp. Heat Index Dew Point Humidity Pressure Visibility Wind Dir Wind Speed Gust Speed Precip Events Conditions
12:56 AM 77.0 °F - 73.9 °F 90% 29.94 in 10.0 mi SSE 6.9 mph - N/A   Scattered Clouds
1:56 AM 75.9 °F - 73.9 °F 94% 29.93 in 10.0 mi SSE 4.6 mph - N/A   Partly Cloudy
2:56 AM 73.9 °F - 72.0 °F 93% 29.93 in 10.0 mi Calm Calm - N/A   Partly Cloudy
3:56 AM 72.0 °F - 71.1 °F 97% 29.93 in 10.0 mi Calm Calm - N/A   Scattered Clouds
4:56 AM 71.1 °F - 71.1 °F 100% 29.92 in 10.0 mi Calm Calm - N/A   Partly Cloudy
5:56 AM 71.1 °F - 71.1 °F 100% 29.92 in 9.0 mi SSE 4.6 mph - N/A   Clear
6:56 AM 71.1 °F - 71.1 °F 100% 29.92 in 7.0 mi ESE 4.6 mph - N/A   Partly Cloudy
7:56 AM 73.0 °F - 73.0 °F 100% 29.93 in 8.0 mi ESE 5.8 mph - N/A   Scattered Clouds
8:56 AM 82.0 °F 90.2 °F 77.0 °F 85% 29.94 in 10.0 mi SE 10.4 mph - N/A   Scattered Clouds
9:56 AM 84.0 °F 92.6 °F 75.9 °F 76% 29.96 in 10.0 mi SE 11.5 mph 21.9 mph N/A   Mostly Cloudy
10:14 AM 86.0 °F 95.1 °F 75.2 °F 70% 29.97 in 10.0 mi SSE 17.3 mph - 0.00 in Rain Light Rain
10:26 AM 87.8 °F 95.6 °F 73.4 °F 62% 29.97 in 10.0 mi SE 15.0 mph 25.3 mph 0.00 in   Overcast
10:56 AM 89.1 °F 95.0 °F 71.1 °F 55% 29.96 in 10.0 mi SE 21.9 mph 27.6 mph 0.00 in   Mostly Cloudy
11:56 AM 91.0 °F 97.6 °F 71.1 °F 52% 29.96 in 10.0 mi SE 20.7 mph 27.6 mph N/A   Mostly Cloudy
12:56 PM 91.9 °F 97.4 °F 70.0 °F 48% 29.95 in 10.0 mi SE 23.0 mph 28.8 mph N/A   Mostly Cloudy
1:56 PM 91.9 °F 96.9 °F 69.1 °F 47% 29.92 in 10.0 mi ESE 20.7 mph 28.8 mph N/A   Mostly Cloudy
2:56 PM 93.0 °F 97.9 °F 69.1 °F 45% 29.90 in 10.0 mi ESE 19.6 mph 27.6 mph N/A   Scattered Clouds
3:56 PM 91.9 °F 97.4 °F 70.0 °F 48% 29.90 in 10.0 mi ESE 21.9 mph 33.4 mph N/A   Scattered Clouds
4:56 PM 90.0 °F 95.4 °F 70.0 °F 52% 29.89 in 10.0 mi SE 20.7 mph 28.8 mph N/A   Scattered Clouds
5:56 PM 86.0 °F 92.2 °F 72.0 °F 63% 29.90 in 10.0 mi SE 17.3 mph 25.3 mph N/A   Scattered Clouds
6:56 PM 82.9 °F 87.5 °F 71.1 °F 67% 29.91 in 10.0 mi SE 16.1 mph 28.8 mph N/A   Clear
7:56 PM 81.0 °F 86.7 °F 75.0 °F 82% 29.92 in 10.0 mi SE 13.8 mph 24.2 mph N/A   Clear
8:56 PM 79.0 °F - 77.0 °F 94% 29.95 in 5.0 mi ESE 20.7 mph 25.3 mph 0.02 in Rain Heavy Rain
9:56 PM 75.0 °F - 75.0 °F 100% 29.95 in 10.0 mi ESE 10.4 mph - 0.00 in   Overcast
10:56 PM 75.9 °F - 75.9 °F 100% 29.96 in 5.0 mi SE 12.7 mph 18.4 mph 0.07 in Rain Light Rain
10:59 PM 75.2 °F - - N/A% 29.97 in 2.5 mi SE 21.9 mph 29.9 mph 0.05 in Rain Heavy Rain
11:03 PM 75.2 °F - - N/A% 29.97 in 1.5 mi ESE 17.3 mph 29.9 mph 0.09 in Rain Heavy Rain
11:09 PM 75.2 °F - - N/A% 29.97 in 3.0 mi ESE 12.7 mph 23.0 mph 0.09 in Rain Light Rain
11:56 PM 75.9 °F - 75.9 °F 100% 29.95 in 7.0 mi ESE 5.8 mph - 0.10 in Rain Light Rain